Weather in Poronaysk

Russia / Sakhalin District     49°13′13″N   143°05′22″E
temp.,
°C
wind,
m/s
gust,
m/s
humid.,
%
clouds,
%
prec.,
mm/h
press.,
hPa
HPBL,
m
16 may, sun
sun1623:00+5s71996100 11.0 1007802
02:00+3sse71595100 3.7 1005479
05:00+5s6997100 8.4 1001188
08:00+8ssw48892 0.4 1000287
11:00+12sw9157454 0.4 9991160
14:00+17sw8135235 0.0 9971916
17:00+17sw5125025 0.1 9971580
20:00+13sw376949 0.0 999260
17 may, mon
mon1723:00+9sw348112 0.0 100047
02:00+9wsw347938 0.0 100052
05:00+7wnw33820 0.0 100028
08:00+10nne117227 0.0 1001132
11:00+15ese215999 0.0 1000652
14:00+16se54538 0.0 1000603
17:00+12se57657 0.0 1000280
20:00+8sse35824 0.0 1002175
18 may, tue
tue1823:00+5sse349713 0.0 100374
02:00+4ese229742 0.0 100437
05:00+4se119663 0.0 100379
08:00+5ese228837 0.0 1004137
11:00+10se44728 0.0 1003207
14:00+18se45440 0.0 1002441
17:00+22ssw68365 0.0 10001122
20:00+18ssw611465 0.0 1001401
19 may, wed
wed1923:00+15ssw5114684 0.1 1002232
02:00+15ssw3547100 0.0 100179
05:00+9n35714 0.0 100279
08:00+11ne116754 0.0 1002130
11:00+18sse3553100 0.0 1002518
14:00+22w3740100 0.0 10031574
17:00+21w4738100 0.0 10041678
20:00+11sse3581100 0.0 1007124
20 may, thu
thu2023:00+8s4883100 0.0 1010207
02:00+6ene11845 0.0 101013
05:00+6n11885 0.0 101110
08:00+10ne22755 0.0 1013159
11:00+15se3360100 0.0 1012445
14:00+13sse66679 0.0 1012396
17:00+9se56789 0.0 1010283
20:00+8sse589132 0.0 1007166